Location: Gerlach
(40.6516°N, 119.3568°W)
Time: 15:19:06
(UTC-07:00)

A-11 Canister half - Pass Details

Date: 24 February 2024
Orbit: 1525 x 1683 km, 47.3° (Epoch: 21 April)

Event Time Altitude Azimuth Distance (km) Brightness Sun altitude
Rises 18:27:28 0° 189° (S) 4,805 11.8 -9.2°
Reaches altitude 10° 18:31:24 10° 176° (S) 3,796 11.1 -10.0°
Maximum altitude 18:38:29 24° 128° (SE) 2,827 10.0 -11.3°
Enters shadow 18:43:38 15° 89° (E) 3,350 10.1 -12.3°
